Regional Weather Roundup
Issued by NWS

Home | Current Version | Previous Version | Text Only | Print | Product List | Glossary Off
Versions: 1 2 3 4 5 6 7 8 9 10 11 12 13 14 15 16 17 18 19 20 21 22 23 24 25 26 27 28 29 30 31 32 33 34 35 36 37 38 39 40 41 42 43 44 45 46 47 48 49 50

000
ASUS43 KMKX 061100
RWRWI

WISCONSIN REGIONAL WEATHER ROUNDUP
NATIONAL WEATHER SERVICE MILWAUKEE/SULLIVAN WI
600 AM CDT FRI MAY 06 2016

NOTE: "FAIR" INDICATES FEW OR NO CLOUDS BELOW 12,000 FEET WITH NO
SIGNIFICANT WEATHER AND/OR OBSTRUCTIONS TO VISIBILITY.

WIZ001-002-006>008-014>016-023>028-061200-
NORTHWEST WISCONSIN

CITY           SKY/WX    TMP DP  RH WIND       PRES   REMARKS
SUPERIOR ARPT  PTCLDY    57  43  60 SW8       29.77S
ASHLAND        CLEAR     62  42  47 SW10      29.77R
HAYWARD        PTCLDY    46  39  76 SW3       29.84R
SIREN          CLEAR     59  43  55 W7        29.83S
CUMBERLAND     CLEAR     54  41  62 CALM      29.85R
RICE LAKE      CLEAR     46  41  85 CALM      29.86S
CHETEK         CLEAR     44  42  92 CALM      29.85S
LADYSMITH      PTCLDY    49  39  67 CALM      29.87S
EAU CLAIRE     NOT AVBL
MENOMONIE      CLEAR     48  42  81 CALM      29.86R
NEW RICHMOND   CLEAR     49  41  75 S3        29.87R
OSCEOLA        CLEAR     49  43  80 CALM      29.88R
$$

WIZ003>005-009-010-017-018-061200-
NORTH CENTRAL WISCONSIN

CITY           SKY/WX    TMP DP  RH WIND       PRES   REMARKS
MANITOWISH WTR PTCLDY    44  41  89 CALM      29.83S
ARBOR VITAE    PTCLDY    52  40  64 S3        29.84R
WOODRUFF       PTCLDY    52  40  64 S3        29.84R
RHINELANDER    PTCLDY    52  38  58 SW7       29.85S
EAGLE RIVER    PTCLDY    47  35  64 S3        29.84S
LAND O LAKES   CLOUDY    45  38  77 CALM      29.84S
PHILLIPS       CLEAR     51  38  61 SW6       29.83S
TOMAHAWK       PTCLDY    48  39  71 CALM      29.86R
MEDFORD        CLEAR     47  40  74 S6        29.86F
MERRILL        CLOUDY    46  41  81 CALM      29.87F
$$

WIZ029-030-035-036-043>047-061200-
CENTRAL WISCONSIN

CITY           SKY/WX    TMP DP  RH WIND       PRES   REMARKS
WAUSAU         CLOUDY    55  40  56 S8        29.86S
MOSINEE        MOCLDY    48  41  76 S7        29.88S
MARSHFIELD     PTCLDY    48  38  68 CALM      29.88R
STEVENS POINT  CLEAR     47  37  67 CALM      29.89R
WAUPACA        PTCLDY    48  38  68 S3        29.90R
WAUTOMA        MOCLDY    44  40  85 CALM      29.91R
WISC RAPIDS    CLEAR     44  38  79 SW8       29.89S
CAMP DOUGLAS   NOT AVBL
$$

WIZ011>013-019>022-031-037>040-048>050-061200-
NORTHEAST WISCONSIN

CITY           SKY/WX    TMP DP  RH WIND       PRES   REMARKS
ANTIGO         PTCLDY    46  38  71 CALM      29.87S
SHAWANO        CLEAR     51  37  60 CALM      29.88S
OCONTO         CLEAR     44  44 100 CALM      29.88R
STURGEON BAY   CLEAR     45  37  76 S7        29.91S
GREEN BAY      CLEAR     50  41  71 S5        29.89S
MANITOWOC      NOT AVBL
APPLETON       PTCLDY    48  36  61 S7        29.88S
CLINTONVILLE   PTCLDY    46  37  71 S3        29.88S
OSHKOSH        CLOUDY    47  39  74 S8        29.90S
$$

WIZ032>034-041-042-053>061-061200-
SOUTHWEST WISCONSIN

CITY           SKY/WX    TMP DP  RH WIND       PRES   REMARKS
LA CROSSE      PTCLDY    54  45  71 S5        29.90R
SPARTA         PTCLDY    41  39  93 CALM      29.91R
VIROQUA        CLEAR     51  38  60 SW8       29.91S
BOSCOBEL       CLEAR     43  41  93 SW3       29.94R
PRAIRIE DU CHI PTCLDY    47  39  72 CALM      29.93S
PLATTEVILLE    PTCLDY    50  39  66 S7        29.95S
$$

WIZ056-057-062-063-064-067-068-061200-
SOUTH CENTRAL WISCONSIN

CITY           SKY/WX    TMP DP  RH WIND       PRES   REMARKS
REEDSBURG      CLEAR     53  37  56 CALM      29.91S
BARABOO/DELLS  CLOUDY    57  34  41 SW8       29.91S
LONE ROCK      NOT AVBL
MINERAL POINT  CLEAR     50  36  57 S6        29.95R
MADISON        PTCLDY    51  37  58 S7        29.93F
MIDDLETON      PTCLDY    54  36  50 SW3       29.94S
WATERTOWN      CLOUDY    44  42  94 CALM      29.94S
MONROE         CLEAR     46  37  71 SW9       29.95S
JANESVILLE     CLOUDY    46  43  87 SE3       29.96S
$$

WIZ051-052-058>065-066-070>072-061200-
SOUTHEAST WISCONSIN

CITY           SKY/WX    TMP DP  RH WIND       PRES   REMARKS
MILWAUKEE      LGT RAIN  53  40  61 CALM      29.95R
WAUKESHA       PTCLDY    46  39  76 SW3       29.96S
MILWAUKEE/TIMM CLOUDY    50  37  62 W5        29.95S
RACINE         CLOUDY    49  40  71 CALM      29.97R
BURLINGTON     CLOUDY    46  41  82 SW5       29.96S
KENOSHA        CLOUDY    50  41  71 SW6       29.96R
FOND DU LAC    CLOUDY    50  39  66 S5        29.92S
SHEBOYGAN      CLOUDY    45  40  82 S6        29.93R
WEST BEND      CLOUDY    46  37  71 CALM      29.94R
JUNEAU         CLOUDY    45  40  82 SE7       29.95S
$$

LSZ147-162-061200-
LAKE SUPERIOR

STATION/POSITION TIME  TEMP    WIND        PRES    WAVE
                       AIR SEA DIR/SP/G            HT/PER
                 (UTC) (F)     (DEG/KT/KT) (MB)    (FT/S)
W MID LAKE BUOY  0950   44 37  210/ 10/ 10 1007.1F   1
DEVILS ISLAND    1000   42     260/  7/  8 1007.6F
PORT WING        1000   54     180/  6/  6 1007.8
SAXON HARBOR     1000   63     200/  9/ 16 1007.5R
$$

LMZ867-665-643>646-061200-
LAKE MICHIGAN

STATION/POSITION TIME  TEMP    WIND        PRES    WAVE
                       AIR SEA DIR/SP/G            HT/PER
                 (UTC) (F)     (DEG/KT/KT) (MB)    (FT/S)
CHAMBERS ISLAND  1000   52     180/  7/ 13 1011.9
N MID LAKE BUOY  0950   41 39  180/ 10/ 12 1012.2F   1
NORTHPORT PIER   1000   45     160/  3/  7 1011.9S
ALGOMA LAKESHORE 1015          220/  6/  8   N/A
KEWAUNEE LAKESHO 1000   45     170/  7/  8 1012.0S
SHEBOYGAN LAKESH 1000   44     180/ 11/ 12 1014.0R
PORT WASHINGTON  1000   52     250/  3/  6 1013.9F
S MID LAKE BUOY  0950   44 40  220/  8/  8 1014.2F   1
KENOSHA   LAKESH 1000   50     230/  3/  4 1013.9F
$$

TC  - TEMPERATURE IN CELSIUS
VSB - VISIBILITY IN STATUTE MILES
WCI - WIND CHILL INDEX
HX  - HEAT INDEX




USA.gov is the U.S. government's official web portal to all federal, state and local government web resources and services.